Location: Elkol
(41.7238°N, 110.6124°W)
Time: 17:44:21
(UTC+00:00)

Envisat - Pass Details

Date: 25 January 2022
Orbit: 764 x 765 km, 98.2° (Epoch: 18 May)

Event Time Altitude Azimuth Distance (km) Brightness Sun altitude
Rises 13:15:49 0° 1° (N) 3,239 6.1 -15.9°
Reaches altitude 10° 13:18:24 10° 350° (N) 2,309 5.3 -15.4°
Maximum altitude 13:22:39 28° 294° (WNW) 1,423 3.8 -14.6°
Drops below altitude 10° 13:26:53 10° 237° (WSW) 2,297 5.1 -13.9°
Sets 13:29:27 0° 225° (SW) 3,220 5.9 -13.4°
